Location: Newark
(46.4833°N, 6.4167°E)
Time: 22:00:53
(UTC+00:00)

N. Korean satellite - Visible Passes

Search period start: 14 December 2019 00:00
Search period end: 24 December 2019 00:00
Orbit: 455 x 507 km, 97.2° (Epoch: 13 December)

Date Brightness Start Highest point End Pass type
(mag) Time Alt. Az. Time Alt. Az. Time Alt. Az.
14 Dec 8.7 04:53:59 10° NE 04:57:03 27° E 05:00:03 10° SSE visible
14 Dec 7.8 06:27:38 10° NNW 06:30:18 20° WNW 06:32:56 10° WSW visible
14 Dec 8.4 17:04:46 10° SSW 17:08:12 36° W 17:11:38 10° NNW visible
15 Dec 9.8 04:29:28 10° ENE 04:31:24 14° E 04:33:21 10° SE visible
15 Dec 6.9 06:01:43 10° N 06:05:01 39° WNW 06:08:15 10° SW visible
15 Dec 6.9 16:39:02 10° S 16:42:43 75° WSW 16:46:23 10° NNW visible
16 Dec 6.3 05:36:08 10° N 05:39:38 84° WNW 05:43:05 10° SSW visible
16 Dec 10.0 17:49:28 10° WSW 17:51:00 12° W 17:52:32 10° WNW visible
17 Dec 7.6 05:10:47 10° NNE 05:14:10 44° E 05:17:28 10° S visible
17 Dec 9.3 17:22:23 10° SSW 17:25:21 23° W 17:28:19 10° NW visible
18 Dec 9.1 04:45:49 10° NE 04:48:35 22° E 04:51:19 10° SSE visible
18 Dec 7.5 06:19:04 10° NNW 06:21:57 25° WNW 06:24:48 10° SW visible
18 Dec 7.9 16:56:16 10° S 16:59:48 45° W 17:03:19 10° NNW visible
19 Dec 10.0 04:21:47 10° ENE 04:22:55 11° E 04:24:03 10° ESE visible
19 Dec 6.6 05:53:15 10° N 05:56:38 49° WNW 05:59:57 10° SSW visible
19 Dec 6.6 16:30:40 10° SSE 16:34:20 87° E 16:37:58 10° NNW visible
20 Dec 6.6 05:27:44 10° NNE 05:31:12 76° E 05:34:38 10° S visible
20 Dec 9.8 17:40:24 10° SW 17:42:31 15° W 17:44:40 10° NW visible
21 Dec 8.1 05:02:29 10° NNE 05:05:42 35° E 05:08:52 10° SSE visible
21 Dec 8.0 06:36:37 10° NNW 06:38:50 16° WNW 06:41:02 10° WSW visible
21 Dec 8.9 17:13:44 10° SSW 17:16:55 28° W 17:20:04 10° NW visible
22 Dec 9.4 04:37:41 10° NE 04:40:06 18° E 04:42:30 10° SE visible
22 Dec 7.2 06:10:30 10° N 06:13:34 30° WNW 06:16:36 10° SW visible
22 Dec 7.3 16:47:47 10° S 16:51:22 57° W 16:54:56 10° NNW visible
23 Dec 6.4 05:44:47 10° N 05:48:12 63° WNW 05:51:36 10° SSW visible
23 Dec 6.5 16:22:19 10° SSE 16:25:56 68° ENE 16:29:30 10° N visible
